Location: Hokitika
(42.7170°S, 170.9670°E)
Time: 03:14:54
(UTC+12:00)

SL-08 RB Rocket - Pass Details

Date: 24 January 2019
Orbit: 647 x 684 km, 97.9° (Epoch: 19 April)

Event Time Altitude Azimuth Distance (km) Brightness Sun altitude
Rises 23:33:23 0° 173° (S) 3,007 7.8 -20.7°
Reaches altitude 10° 23:35:39 10° 178° (S) 2,090 7.0 -21.0°
Maximum altitude 23:40:04 51° 252° (WSW) 839 4.4 -21.4°
Enters shadow 23:42:57 20° 320° (NW) 1,508 5.3 -21.7°
